Satellite: SO-50
Catalog number: 27607
Epoch time:      12229.68527085
Element set:     839
Inclination:      064.5578 deg
RA of node:       110.8570 deg
Eccentricity:    0.0079435
Arg of perigee:   236.5501 deg
Mean anomaly:     122.7991 deg
Mean motion:   14.72461920 rev/day
Decay rate:       2.48e-06 rev/day^2
Epoch rev:           51887
Checksum:              331

Satellite: CO-55
Catalog number: 27844
Epoch time:      12228.55949576
Element set:    0441
Inclination:      098.7036 deg
RA of node:       236.0782 deg
Eccentricity:    0.0010645
Arg of perigee:   053.3830 deg
Mean anomaly:     306.8323 deg
Mean motion:   14.21055967 rev/day
Decay rate:       2.00e-06 rev/day^2
Epoch rev:           47332
Checksum:              304

Satellite: CO-57
Catalog number: 27848
Epoch time:      12228.50317787
Element set:    0392
Inclination:      098.7116 deg
RA of node:       235.3826 deg
Eccentricity:    0.0010646
Arg of perigee:   059.3335 deg
Mean anomaly:     300.8882 deg
Mean motion:   14.20803336 rev/day
Decay rate:       1.45e-06 rev/day^2
Epoch rev:           47325
Checksum:              314

Satellite: AO-51
Catalog number: 28375
Epoch time:      12229.90812125
Element set:     342
Inclination:      098.1535 deg
RA of node:       192.3795 deg
Eccentricity:    0.0082554
Arg of perigee:   217.0022 deg
Mean anomaly:     142.5463 deg
Mean motion:   14.40975432 rev/day
Decay rate:       1.21e-06 rev/day^2
Epoch rev:           42751
Checksum:              286

Satellite: CP3
Catalog number: 31129
Epoch time:      12228.50697715
Element set:     238
Inclination:      097.8829 deg
RA of node:       232.7974 deg
Eccentricity:    0.0099742
Arg of perigee:   299.1409 deg
Mean anomaly:     059.9832 deg
Mean motion:   14.53167011 rev/day
Decay rate:       4.97e-06 rev/day^2
Epoch rev:           28259
Checksum:              349

Satellite: CO-65
Catalog number: 32785
Epoch time:      12228.68528809
Element set:    0391
Inclination:      097.7966 deg
RA of node:       288.3187 deg
Eccentricity:    0.0013635
Arg of perigee:   224.5922 deg
Mean anomaly:     135.4158 deg
Mean motion:   14.83113596 rev/day
Decay rate:      1.116e-05 rev/day^2
Epoch rev:           23258
Checksum:              341

Satellite: PRISM
Catalog number: 33493
Epoch time:      12229.67360426
Element set:     980
Inclination:      098.1785 deg
RA of node:       011.7140 deg
Eccentricity:    0.0019946
Arg of perigee:   100.3567 deg
Mean anomaly:     259.9884 deg
Mean motion:   14.84163122 rev/day
Decay rate:      2.300e-05 rev/day^2
Epoch rev:           19272
Checksum:              303

Satellite: SOHLA-1
Catalog number: 33496
Epoch time:      12229.88951015
Element set:     807
Inclination:      098.1073 deg
RA of node:       341.2409 deg
Eccentricity:    0.0006004
Arg of perigee:   199.6605 deg
Mean anomaly:     160.4369 deg
Mean motion:   14.70017280 rev/day
Decay rate:       3.04e-06 rev/day^2
Epoch rev:           19116
Checksum:              285

Satellite: SO-67
Catalog number: 35870
Epoch time:      12229.72481044
Element set:     239
Inclination:      097.2291 deg
RA of node:       263.3465 deg
Eccentricity:    0.0001830
Arg of perigee:   010.9643 deg
Mean anomaly:     126.5072 deg
Mean motion:   15.24261208 rev/day
Decay rate:      3.318e-05 rev/day^2
Epoch rev:           16183
Checksum:              287

Satellite: TISAT-1
Catalog number: 36799
Epoch time:      12229.76677438
Element set:     256
Inclination:      098.0593 deg
RA of node:       306.5401 deg
Eccentricity:    0.0014434
Arg of perigee:   341.8627 deg
Mean anomaly:     018.2053 deg
Mean motion:   14.82138420 rev/day
Decay rate:      1.292e-05 rev/day^2
Epoch rev:           11346
Checksum:              302

Satellite: STUDSAT
Catalog number: 36801
Epoch time:      12229.73242301
Element set:     450
Inclination:      098.0689 deg
RA of node:       307.5024 deg
Eccentricity:    0.0012297
Arg of perigee:   326.3353 deg
Mean anomaly:     033.7079 deg
Mean motion:   14.84819199 rev/day
Decay rate:      3.949e-05 rev/day^2
Epoch rev:           11350
Checksum:              298

Satellite: FO-69
Catalog number: 37227
Epoch time:      12179.46825757
Element set:    0219
Inclination:      071.9703 deg
RA of node:       289.2712 deg
Eccentricity:    0.0018108
Arg of perigee:   298.3339 deg
Mean anomaly:     061.6016 deg
Mean motion:   14.77092260 rev/day
Decay rate:       1.66e-06 rev/day^2
Epoch rev:           03761
Checksum:              323

Satellite: FO-70
Catalog number: 37380
Epoch time:      12179.47554455
Element set:    0223
Inclination:      071.9743 deg
RA of node:       289.8278 deg
Eccentricity:    0.0018623
Arg of perigee:   295.0880 deg
Mean anomaly:     064.8372 deg
Mean motion:   14.76843679 rev/day
Decay rate:       2.08e-06 rev/day^2
Epoch rev:           03750
Checksum:              341

Satellite: ALMASAT-1
Catalog number: 38078
Epoch time:      12229.48331374
Element set:     480
Inclination:      069.4870 deg
RA of node:       180.5009 deg
Eccentricity:    0.0750220
Arg of perigee:   173.3432 deg
Mean anomaly:     187.8359 deg
Mean motion:   14.11048841 rev/day
Decay rate:     1.2943e-04 rev/day^2
Epoch rev:            2605
Checksum:              297

